This is the latest recevied weather packets stored in our database for station/object SP9TKN-1. If no packets are shown the sender has not sent any weather packets the latest 10 day(s).
| Time | Temp. | Humidity | Pressure | Rain* | Wind** | Luminosity | Snow |
|---|---|---|---|---|---|---|---|
| 1777545959 | 12.22° C | 21% | 1030.3 hPa | - | - | - | - |
| 1777545059 | 11.67° C | 21% | 1030.4 hPa | - | - | - | - |
| 1777544159 | 11.67° C | 22% | 1030.7 hPa | - | - | - | - |
| 1777543261 | 11.67° C | 23% | 1030.8 hPa | - | - | - | - |
| 1777542360 | 11.11° C | 24% | 1030.9 hPa | - | - | - | - |
| 1777541459 | 11.11° C | 25% | 1031.2 hPa | - | - | - | - |
| 1777540559 | 10.56° C | 26% | 1031.3 hPa | - | - | - | - |
| 1777539659 | 10° C | 27% | 1031.3 hPa | - | - | - | - |
| 1777538759 | 10° C | 29% | 1031.5 hPa | - | - | - | - |
| 1777537859 | 9.44° C | 30% | 1031.5 hPa | - | - | - | - |
| 1777536959 | 9.44° C | 30% | 1031.7 hPa | - | - | - | - |
| 1777536061 | 8.89° C | 30% | 1031.8 hPa | - | - | - | - |
| 1777535159 | 8.33° C | 32% | 1031.8 hPa | - | - | - | - |
| 1777534259 | 7.78° C | 33% | 1031.8 hPa | - | - | - | - |
| 1777533359 | 7.22° C | 36% | 1031.8 hPa | - | - | - | - |
| 1777532461 | 6.67° C | 37% | 1032 hPa | - | - | - | - |
| 1777531559 | 6.11° C | 40% | 1032 hPa | - | - | - | - |
| 1777530659 | 5.56° C | 44% | 1032.2 hPa | - | - | - | - |
| 1777529759 | 5° C | 46% | 1032.1 hPa | - | - | - | - |
| 1777528859 | 4.44° C | 48% | 1032 hPa | - | - | - | - |
| 1777527960 | 3.89° C | 49% | 1032 hPa | - | - | - | - |
| 1777527059 | 3.33° C | 51% | 1032 hPa | - | - | - | - |
| 1777526159 | 3.33° C | 52% | 1032 hPa | - | - | - | - |
| 1777525258 | 2.78° C | 54% | 1032 hPa | - | - | - | - |
| 1777524358 | 2.78° C | 54% | 1031.8 hPa | - | - | - | - |
* Rain since midnight (hover to see other rain measurements)
** Current wind speed in m/s (hover to see current wind gust speed)